Find Kosmos-1711

NORAD ID: 16397 Int'l Des: 1985-118 Owner: GUKOS Country: SU Constellation: GLONASS operational
MEOCIRCULAR

リアルタイム位置

3D地球を読み込み中...

Kosmos-1711について

説明を読み込み中...

次回通過

Passes for default location (London). Set your location on the main map for personalized predictions.

高度履歴

Loading altitude history...

軌道要素

1 16397U 85118B 26104.80428435 -.00000013 00000-0 00000+0 0 9990
2 16397 66.0922 326.5525 0008939 184.0255 352.9674 2.13101130313404
Epoch: Apr 14, 2026 • Age: 11 hours

現在のステータス

高度 19109.4 km
速度 3.96 km/s
衛星直下点 18.27°N, 155.78°W
打ち上げ日 Dec 24, 1985
運用期間 40.3 years
タイプ other

技術仕様

分類 Payload
質量 1300.00 kg
乾燥質量 1200.00 kg
総質量 1300.00 kg
長さ 4.00 m
直径 1.50 m
スパン 7.80 m
形状 Cyl + Ant + 2 Pan
製造者 OAZ
バスタイプ Uragan
フェーズステータス In Orbit
所有者/国 GUKOS/SU

Most Searched